This is the latest recevied weather packets stored in our database for station/object KB1JL-13. If no packets are shown the sender has not sent any weather packets the latest 10 day(s).
| Time | Temp. | Humidity | Pressure | Rain* | Wind** | Luminosity | Snow |
|---|---|---|---|---|---|---|---|
| 1788474355 | 25.56° C | 89% | 1024 hPa | 0 mm | - | 41 W/m² | - |
| 1788474053 | 26.11° C | 89% | 1024 hPa | 0 mm | - | 47 W/m² | - |
| 1788473749 | 26.11° C | 88% | 1024 hPa | 0 mm | - | 53 W/m² | - |
| 1788473446 | 26.11° C | 87% | 1024 hPa | 0 mm | - | 59 W/m² | - |
| 1788473140 | 26.11° C | 88% | 1024 hPa | 0 mm | - | 56 W/m² | - |
| 1788472840 | 26.11° C | 87% | 1024 hPa | 0 mm | - | 49 W/m² | - |
| 1788472539 | 26.67° C | 86% | 1023.7 hPa | 0 mm | - | 47 W/m² | - |
| 1788472238 | 26.67° C | 85% | 1024 hPa | 0 mm | - | 55 W/m² | - |
| 1788471938 | 27.22° C | 83% | 1024 hPa | 0 mm | - | 61 W/m² | - |
| 1788471633 | 27.22° C | 83% | 1024 hPa | 0 mm | - | 121 W/m² | - |
| 1788471329 | 27.22° C | 81% | 1024 hPa | 0 mm | - | 118 W/m² | - |
| 1788471024 | 27.22° C | 83% | 1024 hPa | 0 mm | - | 126 W/m² | - |
| 1788470720 | 27.22° C | 82% | 1024 hPa | 0 mm | - | 171 W/m² | - |
| 1788470415 | 27.22° C | 81% | 1024 hPa | 0 mm | - | 210 W/m² | - |
| 1788470110 | 27.22° C | 82% | 1023.7 hPa | 0 mm | - | 224 W/m² | - |
| 1788469807 | 27.22° C | 81% | 1024 hPa | 0 mm | - | 223 W/m² | - |
| 1788469506 | 27.22° C | 83% | 1024.4 hPa | 0 mm | - | 251 W/m² | - |
| 1788469202 | 27.22° C | 82% | 1024 hPa | 0 mm | - | 290 W/m² | - |
| 1788468896 | 27.22° C | 82% | 1024 hPa | 0 mm | - | 139 W/m² | - |
| 1788468591 | 27.78° C | 82% | 1024 hPa | 0 mm | - | 155 W/m² | - |
| 1788468287 | 27.22° C | 81% | 1024.4 hPa | 0 mm | - | 179 W/m² | - |
| 1788467982 | 26.67° C | 83% | 1024.4 hPa | 0 mm | - | 183 W/m² | - |
| 1788467678 | 26.67° C | 83% | 1024 hPa | 0 mm | - | 154 W/m² | - |
| 1788467377 | 26.67° C | 85% | 1024 hPa | 0 mm | - | 129 W/m² | - |
| 1788467074 | 26.67° C | 84% | 1024 hPa | 0 mm | - | 100 W/m² | - |
* Rain latest hour (hover to see other rain measurements)
** Current wind speed in m/s (hover to see current wind gust speed)